Tracking 18844 objects as of 21-Nov-2017
HD Live streaming from Space Station
objects crossing your sky now

ARIANE 42L R/B

Track ARIANE 42L R/B now!
10-day predictions


NORAD ID: 25586
Int'l Code: 1998-075B
Perigee: 211.9 km
Apogee: 18,468.2 km
Inclination: 7.4 °
Period: 326.6 minutes
Semi major axis: 15711 km
RCS: 21.3079 m2 (large)
Launch date: December 22, 1998
Source: France (FR)
Launch site: FRENCH GUIANA (FRGUI)

Note: This is a ROCKET BODY
aabbcc
Your satellite tracking list
Your tracking list is empty




NASA's NSSDC Master Catalog

Two Line Element Set (TLE):
1 25586U 98075B   17325.07611241  .00045477  00000-0  15010-2 0  9991
2 25586   7.4471 179.0971 5810023 245.0634  45.3068  4.40854512237043
Source of the keplerian elements: AFSPC